Regional Weather Roundup
Issued by NWS

Home | Current Version | Previous Version | Graphics & Text | Print | Product List | Glossary On
Versions: 1 2 3 4 5 6 7 8 9 10 11 12 13 14 15 16 17 18 19 20 21 22 23 24 25 26 27 28 29 30 31 32 33 34 35 36 37 38 39 40 41 42 43 44 45 46 47 48 49 50
000
ASUS45 KTFX 110610
RWRMT
MONTANA REGIONAL WEATHER ROUNDUP
NATIONAL WEATHER SERVICE GREAT FALLS MT
1100 PM MST WED FEB 10 2016

NOTE: "FAIR" INDICATES FEW OR NO CLOUDS BELOW 12000 FEET WITH NO
SIGNIFICANT WEATHER AND/OR OBSTRUCTIONS TO VISIBILITY.

MTZ001>007-043-110700-
WEST OF THE DIVIDE

CITY           SKY/WX    TMP DP  RH WIND       PRES   REMARKS
KALISPELL      MOCLDY    31  28  89 CALM      30.17R
MISSOULA       CLOUDY    34  31  88 CALM      30.25R
BUTTE          CLOUDY    23  18  81 SE5       30.21S
MULLAN PASS    CLOUDY    34  30  85 VRB7      30.23S WCI  28
ANACONDA         N/A     48  21  34 SW5       30.20R
DEER LODGE       N/A     39  27  60 CALM      30.20F
HAMILTON         N/A     46  27  46 SE3       30.23S
LIBBY            N/A     30  28  93 CALM      30.21R
PLAINS           N/A     36  31  82 CALM      30.21S
THOMPSON FALLS   N/A     36  33  88 CALM      30.27R
$$

MTZ008-052>055-110700-
SOUTHWEST MONTANA

CITY           SKY/WX    TMP DP  RH WIND       PRES   REMARKS
BOZEMAN        CLOUDY    33  29  85 S7        30.19R WCI  27
DILLON         CLOUDY    35  26  69 SW18      30.23R WCI  24
ENNIS          PTCLDY    39  25  56 S22G32    30.28S WCI  29
THREE FORKS      N/A     32  32 100 CALM      30.14S
TWIN BRIDGES     N/A     36  24  62 E9        30.19R WCI  29
$$

MTZ009-010-012-014-046-048-049-054-110700-
EAST SLOPES AND CENTRAL MONTANA

CITY           SKY/WX    TMP DP  RH WIND       PRES   REMARKS
CUT BANK       MOCLDY    43  28  55 W20       30.00S
GREAT FALLS    CLOUDY    50  25  37 SW20      30.03S
MALMSTROM AFB  CLOUDY    49  26  41 SW15      30.03S
HELENA         CLOUDY    32  26  78 VRB3      30.15S
CHOTEAU          N/A     52  30  43 W15G29    30.04S
CONRAD           N/A     51  33  50 SW15      30.04R
$$

MTZ011-013-016-021-045-047-050-051-110700-
NORTH CENTRAL MONTANA

CITY           SKY/WX    TMP DP  RH WIND       PRES   REMARKS
HAVRE          CLOUDY    33  31  92 NE10      29.99S WCI  25
LEWISTOWN      CLOUDY    41  29  62 SW14      30.02F
N BAR RANCH      N/A     39  23  52 N5        30.04F
CHINOOK          N/A     34  30  86 E14G22    30.00S WCI  24
$$

MTZ017>020-022>027-061-062-110700-
NORTHEAST MONTANA

CITY           SKY/WX    TMP DP  RH WIND       PRES   REMARKS
GLASGOW        CLOUDY    31  26  82 E9        30.08F WCI  23
JORDAN           N/A     32  30  92 E7        30.07F WCI  26
SIDNEY         CLOUDY    28  25  86 CALM      30.13F
WOLF POINT     CLOUDY    32  27  81 CALM      30.14R
PLENTYWOOD       N/A     25  21  86 CALM      30.13R
POPLAR           N/A     28  27  93 CALM      30.14R
SCOBEY           N/A     25  18  74 N2        30.08F
$$

MTZ028>42-056>058-110700-
SOUTHCENTRAL AND SOUTHEAST MONTANA

CITY           SKY/WX    TMP DP  RH WIND       PRES   REMARKS
BAKER          CLOUDY    32  26  78 SE7       30.09F WCI  26
BILLINGS       CLOUDY    47  23  38 SW14      30.05F
LIVINGSTON     CLOUDY    51  21  30 SW26G33   30.12R
MILES CITY     CLOUDY    32  29  88 SE6       30.08S WCI  26
FORSYTH          N/A     34  30  86 E5        30.07F
LAUREL           N/A     45  21  38 SW7       30.04F
ROUNDUP          N/A     37  25  62 W3        29.94F
$$

REGIONAL REPORTS...DAKOTAS

CITY           SKY/WX    TMP DP  RH WIND       PRES   REMARKS
WILLISTON      CLOUDY    26  21  81 SE7       30.13F WCI  18
MINOT          CLOUDY    13   6  74 SE3       30.18S
DICKINSON      CLOUDY    24  21  88 S7        30.09S WCI  16
BEACH          CLOUDY    30  30 100 CALM      30.11F
CROSBY         CLOUDY    19  19 100 CALM      30.16S
TIOGA          CLOUDY    19  19 100 S7        30.17S WCI  10
WATFORD CITY   CLOUDY    25  21  86 E6        30.13F WCI  18
BISMARCK       CLOUDY    17  10  74 SE7       30.19F WCI   8
GRAND FORKS    CLOUDY     2  -4  76 W3        30.31S
FARGO          CLOUDY     7  -2  66 N3        30.30F
BUFFALO SD       N/A     32  28  85 SE3       30.05R
RAPID CITY     CLOUDY    29  27  92 SE8       30.13F WCI  21
$$

REGIONAL REPORTS...WYOMING/IDAHO/WASHINGTON

CITY           SKY/WX    TMP DP  RH WIND       PRES   REMARKS
GILLETTE       CLOUDY    33  26  75 CALM      30.09F
SHERIDAN       CLOUDY    37  25  61 S6        30.07F
BUFFALO WY     CLOUDY    42  23  46 SW7       30.10F
CODY           CLOUDY    50  19  29 S5        30.14S
YELLOWSTONE LA   N/A     23  19  85 CALM      30.35S
IDAHO FALLS    CLOUDY    16  12  84 CALM      30.40S
SALMON         CLOUDY    18  16  93 CALM      30.40R
BOISE          PTCLDY    31  29  92 SW3       30.42S FOG
SPOKANE        CLOUDY    35  33  92 CALM      30.28R
$$

REGIONAL REPORTS...ALBERTA

CITY           SKY/WX    TMP DP  RH WIND       PRES   REMARKS
EDMONTON       LGT SNOW  25  19  80 E12       30.05F WCI  14
CALGARY        FOG       30  30 100 E7        29.97S VSB 1/4 WCI  23
LETHBRIDGE     CLEAR     48  30  49 W25G38    29.94R
MEDICINE HAT   CLOUDY    34  30  86 NE10      29.96S WCI  26
WATERTON GATE    N/A     46  27  46 W18G28      N/A
CARDSTON         N/A     48  27  43 W15G22      N/A
MILK RIVER       N/A     43  30  61 W12G17      N/A
ONEFOUR          N/A     30  30 100 E14         N/A  WCI  20
$$

REGIONAL REPORTS...SASKATCHEWAN

CITY           SKY/WX    TMP DP  RH WIND       PRES   REMARKS
SWIFT CURRENT  CLOUDY    23  21  93 SE13      30.04F WCI  11
REGINA         CLOUDY    16  12  86 SE3       30.17S
SASKATOON      CLOUDY    12   9  85 NE9       30.23S WCI   0
VAL MARIE        N/A     30  27  86 SE7         N/A  WCI  23
ROCKGLEN         N/A     23  23 100 S5          N/A
ASSINIBOIA       N/A     21  18  86 E9          N/A  WCI  11
$$



USA.gov is the U.S. government's official web portal to all federal, state and local government web resources and services.